星链-5745 (STARLINK-5745 )

导读

STARLINK-5745是美国SpaceX公司星链(Starlink)星座中的一颗通信卫星,于2023年2月12日发射升空。作为星链全球卫星互联网项目的组成部分,它运行于低地球轨道,旨在为全球偏远地区、海上空域等传统网络覆盖不足区域提供高速低延迟的宽带互联网接入服务,助力推动全球互联与数字化普及,进一步完善星链星座的全球覆盖网络。

基本信息
目录编号:
55575
目录名称:
STARLINK-5745
国际标识:
2023-020G
轨道中心:
EARTH
卫星名称:
星链-5745
卫星全名:
星链-5745 (STARLINK-5745 )
卫星状态:
在轨 (已飞行1307 天)
发射日期:
2023-02-12 UTC
国别 :
美国 (US)
星等 :
--
轨道信息
数据来源 国际轨道数据 AOE轨道数据
星历时间 2026-09-11T05:00:14+0800
8小时前
查看轨道信息
2026-09-07T02:00:00+0800
4天前
查看轨道信息
半长轴 6861.204km 6861.179km
偏心率 0.000188 0.0001879
轨道倾角 43.005° 43.002°
近地点辐角 282.250° 237.527°
升交点赤经 42.858° 66.157°
平近点角 77.814° 90.559°
近地点 481.777km 481.752km
远地点 484.357km 484.332km
周期 94.267分钟 94.267分钟
每日圈数 15.275742 15.275827
详细信息
固有亮度:
5
最大亮度:
2.5
卫星平台:
Starlink v1.5
覆盖范围:
全球
运营商:
太空探索技术公司
运营商所在国:
美国
制造商(研发单位):
太空探索技术公司
制造商所在国:
美国
使用方式:
暂无
卫星简介
星链(Starlink)计划是由太空探索技术公司(SpaceX)提出的一个巨型低轨卫星互联网星座项目,计划在2019年至2024年间在太空搭建由约1.2万颗卫星组成的“星链”网络,其中1584颗将部署在地球上空550千米处的近地轨道,并从2020年开始工作。该卫星仍在工作。
2D轨道图
3D轨道图
轨道高度分析图
轨道倾角分析图
轨道综合分析图
查看轨道综合分析图
与全量物体交会距离演化趋势
与全量物体交会风险概率演化趋势